History for Miami, FL

Friday, December 14, 2012 — View Current Conditions

Jump to Data:

Date:
Airport Code:
Recently Viewed Airport Codes: KMIA
Daily Summary
  Actual Average Record
Temperature
Mean Temperature 71°F 71°F  
Max Temperature 77°F 78°F 86°F (1900)
Min Temperature 64°F 63°F 35°F (1962)
Degree Days
Heating Degree Days 0 1  
Month to date heating degree days 0 10  
Since 1 July heating degree days 1 13  
Cooling Degree Days 6 7  
Month to date cooling degree days 146 103  
Year to date cooling degree days 4586 4475  
Growing Degree Days 21 (Base 50)    
Moisture
Dew Point 63°F    
Average Humidity 79    
Maximum Humidity 93    
Minimum Humidity 64    
Precipitation
Precipitation 0.12 in 0.07 in 1.55 in (1919)
Month to date precipitation 0.42 0.97  
Year to date precipitation 86.85 60.83  
Snow
Snow 0.00 in in in ()
Month to date snowfall 0.0  
Since 1 July snowfall 0.0  
Snow Depth 0.00 in    
Sea Level Pressure
Sea Level Pressure 30.09 in    
Wind
Wind Speed 4 mph (North)    
Max Wind Speed 12 mph    
Max Gust Speed 16 mph    
Visibility 10 miles    
Events      
T = Trace of Precipitation, MM = Missing Value Source: NWS Daily Summary

Show full METARS

(help) - Comma Delimited File

Hourly Observations

Time(EST) Temperature Dew Point Humidity Sea Level Pressure Visibility Wind Direction Wind Speed Gust Speed Precipitation Events Conditions
12:44 AM 66.2°F 62.6°F 88% 30.09 in 10.0 miles NNW 5.8 mph - N/A   Mostly Cloudy
12:53 AM 66.0°F 62.1°F 87% 30.09 in 10.0 miles Variable 4.6 mph - N/A   Mostly Cloudy
1:26 AM 66.2°F 62.6°F 88% 30.09 in 10.0 miles NNW 3.5 mph - N/A   Scattered Clouds
1:53 AM 64.9°F 62.1°F 90% 30.09 in 10.0 miles NNW 6.9 mph - N/A   Partly Cloudy
2:53 AM 64.0°F 61.0°F 90% 30.07 in 10.0 miles North 4.6 mph - N/A   Partly Cloudy
3:15 AM 64.4°F 60.8°F 88% 30.07 in 10.0 miles Variable 5.8 mph - N/A   Scattered Clouds
3:23 AM 64.4°F 60.8°F 88% 30.07 in 9.0 miles NNW 6.9 mph - N/A   Mostly Cloudy
3:53 AM 64.0°F 61.0°F 90% 30.07 in 10.0 miles NNW 5.8 mph - N/A   Scattered Clouds
4:53 AM 64.0°F 61.0°F 90% 30.07 in 10.0 miles NNW 4.6 mph - N/A   Partly Cloudy
5:53 AM 64.0°F 61.0°F 90% 30.08 in 10.0 miles NNW 6.9 mph - N/A   Mostly Cloudy
6:53 AM 64.0°F 62.1°F 93% 30.10 in 10.0 miles NNW 4.6 mph - N/A   Mostly Cloudy
7:49 AM 64.4°F 62.6°F 94% 30.11 in 10.0 miles NNW 4.6 mph - N/A   Mostly Cloudy
7:53 AM 64.9°F 62.1°F 90% 30.11 in 10.0 miles NW 6.9 mph - N/A   Mostly Cloudy
8:53 AM 66.9°F 63.0°F 87% 30.12 in 10.0 miles NW 8.1 mph - N/A   Mostly Cloudy
9:18 AM 69.8°F 64.4°F 83% 30.13 in 10.0 miles NNW 5.8 mph - N/A   Scattered Clouds
9:53 AM 72.0°F 64.0°F 76% 30.14 in 10.0 miles Variable 3.5 mph - N/A   Scattered Clouds
10:53 AM 75.0°F 64.9°F 71% 30.13 in 10.0 miles Calm Calm - N/A   Scattered Clouds
11:53 AM 75.6°F 63.9°F 67% 30.09 in 10.0 miles NNE 8.1 mph - N/A   Mostly Cloudy
12:53 PM 77.7°F 65.3°F 65% 30.08 in 10.0 miles ENE 17.3 mph - N/A   Mostly Cloudy
1:53 PM 73.6°F 63.5°F 71% 30.08 in 10.0 miles NE 15.0 mph - N/A   Mostly Cloudy
2:53 PM 75.2°F 62.6°F 65% 30.08 in 10.0 miles NE 15.0 mph - N/A   Mostly Cloudy
3:53 PM 73.9°F 64.0°F 71% 30.07 in 10.0 miles ENE 6.9 mph - N/A   Mostly Cloudy
4:53 PM 75.0°F 62.1°F 64% 30.08 in 10.0 miles NNE 8.1 mph - N/A   Mostly Cloudy
5:53 PM 73.9°F 62.1°F 66% 30.07 in 10.0 miles NE 6.9 mph - N/A   Mostly Cloudy
6:53 PM 73.0°F 61.0°F 66% 30.07 in 10.0 miles NE 5.8 mph - N/A   Scattered Clouds
7:53 PM 72.0°F 62.1°F 71% 30.08 in 10.0 miles NE 4.6 mph - N/A   Scattered Clouds
8:53 PM 72.0°F 62.1°F 71% 30.09 in 10.0 miles Variable 3.5 mph - N/A   Scattered Clouds
9:53 PM 71.1°F 62.1°F 73% 30.10 in 10.0 miles Calm Calm - N/A   Scattered Clouds
10:53 PM 70.0°F 63.0°F 78% 30.10 in 10.0 miles NNW 3.5 mph - N/A   Scattered Clouds
11:53 PM 69.1°F 64.0°F 84% 30.09 in 10.0 miles NNW 3.5 mph - N/A   Mostly Cloudy

Search weather conditions

Radar and Maps

Marine Forecast

More resources

More forecasts